Flag for China Weather past 2 weeks in Shenyang, Liaoning, China

Now
66 °F

Clear.


Feels Like: 66 °F
Forecast: 65 / 79 °F
Wind: 3 mph from Southeast

Location: Shenyang / Taoxian

Current Time: Aug 31, 2015 at 2:17:07 AM

Latest Report: Aug 31, 2015 at 1:30 AM


Visibility: 10 mi

Pressure: 29.89 "Hg

Humidity: 94%

Dew point: 64 °F

Location of ShenyangLocation

Historic Weather in Shenyang — Graph

°F

Shenyang temperature yesterday

Maximum temperature yesterday: 79 °F (at 11:30 AM)
Minimum temperature yesterday: 61 °F (at 2:00 AM)
Average temperature yesterday: 70 °F

Past Weeks' High & Low Weather Summary

 TemperatureHumidityPressure
High90 °F (Aug 18, 1:00 PM)100% (Aug 22, 2:30 AM)29.92 "Hg (Aug 22, 2:30 AM)
Low59 °F (Aug 29, 5:00 AM)39% (Aug 26, 2:00 PM)29.59 "Hg (Aug 21, 3:00 PM)
Average73 °F76%29.77 "Hg
* Reported Aug 16 1:00 AM — Aug 31 1:00 AM, Shenyang, Weather by CustomWeather, © 2015

Note: Actual official high and low records may vary slightly from our data, if they occured in-between our weather recording intervals... More about our weather records

Advertising

Shenyang weather history for previous 24 hours

 ConditionsComfort  
Time TempWeatherWind HumidityBarometerVisibility
1:00 AM
Mon, Aug 31
64 °FClear.1 mph100%29.89 "Hg10 mi
12:30 AM66 °FClear.1 mph94%29.89 "Hg10 mi
12:00 AM66 °FClear.1 mph94%29.89 "Hg10 mi
11:30 PM
Sun, Aug 30
66 °FClear.No wind94%29.89 "Hg10 mi
11:00 PM66 °FClear.No wind94%29.89 "Hg10 mi
10:30 PM68 °FClear.1 mph88%29.89 "Hg10 mi
10:00 PM68 °FPassing clouds.3 mph94%29.89 "HgN/A
9:30 PM68 °FClear.1 mph88%29.89 "Hg10 mi
9:00 PM68 °FClear.1 mph88%29.86 "Hg10 mi
8:30 PM70 °FPassing clouds.3 mph83%29.86 "HgN/A
8:00 PM70 °FPassing clouds.3 mph83%29.86 "HgN/A
7:30 PM70 °FClear.1 mph83%29.86 "Hg10 mi
7:00 PM70 °FClear.1 mph78%29.86 "Hg10 mi
6:30 PM73 °FClear.1 mph65%29.83 "Hg10 mi
6:00 PM75 °FSunny.1 mph61%29.83 "Hg10 mi
5:30 PM77 °FSunny.1 mph57%29.80 "Hg10 mi
5:00 PM75 °FPartly sunny.3 mph61%29.80 "HgN/A
4:30 PM75 °FPartly sunny.1 mph61%29.80 "HgN/A
4:00 PM77 °FPartly sunny.6 mph57%29.80 "HgN/A
3:30 PM75 °FSprinkles. Partly sunny.3 mph65%29.80 "HgN/A
3:00 PM75 °FPartly sunny.6 mph61%29.83 "HgN/A
2:30 PM77 °FPartly sunny.1 mph57%29.83 "HgN/A
2:00 PM77 °FPartly sunny.1 mph54%29.83 "HgN/A
1:30 PM77 °FPartly sunny.3 mph61%29.83 "HgN/A
1:00 PM77 °FPartly sunny.6 mph61%29.86 "HgN/A
12:30 PM77 °FPartly sunny.1 mph57%29.86 "HgN/A
11:30 AM79 °FScattered clouds.3 mph58%29.86 "HgN/A
11:00 AM77 °FScattered clouds.3 mph61%29.86 "HgN/A
10:30 AM77 °FScattered clouds.3 mph61%29.89 "HgN/A
10:00 AM75 °FScattered clouds.3 mph65%29.89 "HgN/A
9:30 AM75 °FSunny.1 mph69%29.89 "Hg10 mi
9:00 AM73 °FPassing clouds.3 mph74%29.89 "HgN/A
8:30 AM73 °FSunny.1 mph74%29.89 "Hg10 mi
8:00 AM70 °FScattered clouds.1 mph83%29.89 "HgN/A
7:30 AM68 °FPartly sunny.1 mph88%29.89 "HgN/A
7:00 AM64 °FSunny.1 mph94%29.86 "Hg10 mi
6:30 AM64 °FSunny.1 mph94%29.86 "Hg10 mi
6:00 AM61 °FPassing clouds.3 mph100%29.86 "HgN/A
5:30 AM61 °FSunny.1 mph94%29.86 "Hg10 mi
5:00 AM61 °FClear.3 mph100%29.86 "Hg10 mi
4:30 AM61 °FClear.1 mph94%29.83 "Hg10 mi
4:00 AM61 °FClear.1 mph100%29.83 "Hg10 mi
3:30 AM63 °FClear.3 mph94%29.83 "Hg10 mi
3:00 AM63 °FClear.1 mph94%29.83 "Hg10 mi
2:30 AM61 °FClear.1 mph100%29.83 "Hg10 mi
2:00 AM61 °FClear.1 mph100%29.83 "Hg10 mi
Weather by CustomWeather, © 2015

See weather overviewHow to use our weather pages